WB8ZTP Weather Reports


Display with metric or nautical units.
time (UTC)temp
F
wind
direction
speed
MPH
gust
MPH
rain 1hr
in
rain 24hr
in
rain mn
in
humidity
%
barometer
mb
20260901041614 73 202 0.0 0.0 0.00 0.00 0.00 90 1017.9
20260901040059 74 200 0.0 2.0 0.00 0.00 0.00 89 1017.7
20260901034550 75 206 0.0 0.0 0.00 0.00 0.00 88 1017.5
20260901033049 75 211 0.0 4.0 0.00 0.00 0.00 88 1017.3
20260901031552 74 166 2.0 9.0 0.00 0.00 0.00 90 1017.0
20260901030046 72 196 0.0 3.0 0.00 0.00 0.00 91 1017.6
20260901024544 72 196 1.0 4.0 0.00 0.00 0.00 91 1018.1
20260901023045 71 191 2.0 4.0 0.00 0.00 0.00 91 1018.3
20260901021549 71 205 0.0 2.0 0.00 0.00 0.00 91 1018.8
20260901020042 72 205 0.0 0.0 0.00 0.00 0.00 91 1019.2
20260901014542 72 205 0.0 0.0 0.00 0.00 0.00 90 1019.4
20260901013044 72 205 0.0 0.0 0.00 0.00 0.00 90 1019.3
20260901011540 72 205 0.0 0.0 0.00 0.00 0.00 90 1019.1
20260901010044 73 205 0.0 0.0 0.00 0.00 0.00 90 1018.9
20260901004549 74 205 0.0 0.0 0.00 0.00 0.00 89 1018.7
20260901003039 75 205 0.0 0.0 0.00 0.00 0.00 89 1018.9
20260901001541 76 205 0.0 0.0 0.00 0.00 0.00 88 1018.9
20260901000041 77 205 0.0 1.0 0.00 0.00 0.00 87 1018.7
20260831234538 78 202 0.0 1.0 0.00 0.00 0.00 86 1018.7
20260831233037 79 202 0.0 0.0 0.00 0.00 0.00 86 1018.7
20260831231545 80 202 0.0 0.0 0.00 0.00 0.00 85 1018.6
20260831230040 82 202 0.0 2.0 0.00 0.00 0.00 82 1018.4
20260831224536 82 202 1.0 3.0 0.00 0.00 0.00 77 1018.2
20260831223038 83 202 1.0 5.0 0.00 0.00 0.00 76 1018.1
20260831221537 84 152 1.0 5.0 0.00 0.00 0.00 72 1017.9
20260831220034 85 186 0.0 2.0 0.00 0.00 0.00 75 1018.1
20260831214533 85 186 0.0 3.0 0.00 0.00 0.00 72 1018.2
20260831213034 85 194 0.0 4.0 0.00 0.00 0.00 73 1018.1
20260831211534 85 229 0.0 5.0 0.00 0.00 0.00 71 1018.3
20260831210030 85 188 5.0 7.0 0.00 0.00 0.00 63 1018.5
20260831204535 84 237 2.0 5.0 0.00 0.00 0.00 75 1018.6
20260831203131 84 210 0.0 3.0 0.00 0.00 0.00 73 1018.5
20260831201525 85 194 3.0 6.0 0.00 0.00 0.00 65 1018.9
20260831200027 88 232 4.0 10.0 0.00 0.00 0.00 64 1019.0
20260831194521 87 297 1.0 6.0 0.00 0.00 0.00 68 1019.2
20260831193025 87 296 1.0 4.0 0.00 0.00 0.00 66 1019.2
20260831191519 87 271 2.0 6.0 0.00 0.00 0.00 64 1019.5
20260831190019 87 236 3.0 10.0 0.00 0.00 0.00 63 1019.6
20260831184518 87 192 4.0 12.0 0.00 0.00 0.00 66 1019.7
20260831183015 85 185 2.0 7.0 0.00 0.00 0.00 69 1019.8
20260831181515 85 205 3.0 7.0 0.00 0.00 0.00 66 1020.0
20260831180014 86 246 3.0 6.0 0.00 0.00 0.00 64 1020.0
20260831174514 86 317 2.0 7.0 0.00 0.00 0.00 68 1020.1
20260831173013 86 197 3.0 8.0 0.00 0.00 0.00 66 1020.2
20260831171510 86 317 3.0 8.0 0.00 0.00 0.00 67 1020.2
20260831170009 85 236 4.0 11.0 0.00 0.00 0.00 69 1020.3
20260831164505 84 227 3.0 7.0 0.00 0.00 0.00 72 1020.4
20260831163003 83 314 2.0 5.0 0.00 0.00 0.00 74 1020.4
20260831161559 83 251 2.0 7.0 0.00 0.00 0.00 75 1020.5
20260831160057 82 203 3.0 7.0 0.00 0.00 0.00 77 1020.5
20260831154606 82 195 1.0 7.0 0.00 0.00 0.00 77 1020.4
20260831153053 81 299 2.0 5.0 0.00 0.00 0.00 77 1020.4
20260831151549 80 220 2.0 7.0 0.00 0.00 0.00 79 1020.3
20260831150047 79 184 3.0 5.0 0.00 0.00 0.00 81 1020.3
20260831144546 79 227 3.0 9.0 0.00 0.00 0.00 81 1020.2
20260831143051 77 198 2.0 8.0 0.00 0.00 0.00 84 1020.2
20260831141538 76 216 3.0 7.0 0.00 0.00 0.00 85 1020.0
20260831140035 75 169 2.0 6.0 0.00 0.00 0.00 87 1020.1
20260831134532 74 206 1.0 8.0 0.00 0.00 0.00 88 1020.3
20260831133029 74 198 2.0 6.0 0.00 0.00 0.00 90 1020.2
20260831131537 73 175 2.0 4.0 0.00 0.00 0.00 91 1020.4
20260831130025 72 175 0.0 1.0 0.00 0.00 0.00 91 1020.4
20260831124527 72 175 0.0 1.0 0.00 0.00 0.00 91 1020.4
20260831123022 72 175 0.0 2.0 0.00 0.00 0.00 91 1020.3
20260831121522 71 175 0.0 2.0 0.00 0.00 0.00 91 1020.2
20260831120020 71 175 0.0 2.0 0.00 0.00 0.00 91 1020.2
20260831114519 71 174 1.0 3.0 0.00 0.00 0.00 91 1020.1
20260831113021 71 185 0.0 3.0 0.00 0.00 0.00 90 1019.9
20260831111517 70 192 0.0 3.0 0.00 0.00 0.00 91 1019.9
20260831110016 70 231 0.0 1.0 0.00 0.00 0.00 91 1019.8
20260831104516 70 231 0.0 2.0 0.00 0.00 0.00 91 1019.7
20260831103015 70 231 0.0 1.0 0.00 0.00 0.00 91 1019.5
20260831101515 70 231 0.0 0.0 0.00 0.00 0.00 91 1019.6
20260831100014 70 231 0.0 1.0 0.00 0.00 0.00 91 1019.6
20260831094514 70 231 0.0 2.0 0.00 0.00 0.00 91 1019.5
20260831093015 70 238 0.0 2.0 0.00 0.00 0.00 91 1019.5
20260831091512 70 246 0.0 0.0 0.00 0.00 0.00 91 1019.6
20260831090013 70 246 0.0 0.0 0.00 0.00 0.00 91 1019.6
20260831084512 70 246 0.0 1.0 0.00 0.00 0.00 91 1019.6
20260831083016 70 246 0.0 0.0 0.00 0.00 0.00 91 1019.5
20260831081510 70 246 0.0 1.0 0.00 0.00 0.00 91 1019.4
20260831080010 69 327 0.0 0.0 0.00 0.00 0.00 91 1019.4
20260831074508 69 327 0.0 0.0 0.00 0.00 0.00 91 1019.5
20260831073013 69 327 0.0 0.0 0.00 0.00 0.00 91 1019.6
20260831071506 69 327 0.0 0.0 0.00 0.00 0.00 91 1019.6
20260831070011 69 327 0.0 0.0 0.00 0.00 0.00 91 1019.8
20260831064504 69 327 0.0 0.0 0.00 0.00 0.00 91 1019.8
20260831063003 69 327 0.0 0.0 0.00 0.00 0.00 91 1019.8
20260831061503 69 327 0.0 0.0 0.00 0.00 0.00 91 1019.9
20260831060000 69 327 0.0 0.0 0.00 0.00 0.00 91 1020.0
20260831054600 69 327 0.0 0.0 0.00 0.00 0.00 91 1020.1
20260831053059 70 327 0.0 0.0 0.00 0.00 0.00 91 1020.2
20260831051557 70 327 0.0 0.0 0.00 0.00 0.00 91 1020.4
20260831050055 70 327 0.0 0.0 0.00 0.00 0.00 91 1020.4
20260831044603 70 327 0.0 0.0 0.00 0.00 0.00 91 1020.4
20260831043052 70 327 0.0 0.0 0.00 0.00 0.00 91 1020.5